Regional Weather Roundup
Issued by NWS

Home | Current Version | Previous Version | Graphics & Text | Print | Product List | Glossary On
Versions: 1 2 3 4 5 6 7 8 9 10 11 12 13 14 15 16 17 18 19 20 21 22 23 24 25 26 27 28 29 30 31 32 33 34 35 36 37 38 39 40 41 42 43 44 45 46 47 48 49 50
000
ASUS43 KBIS 230810
RWRND

NORTH DAKOTA REGIONAL WEATHER ROUNDUP
NATIONAL WEATHER SERVICE BISMARCK ND
300 AM CDT THU MAR 23 2017

NOTE: "FAIR" INDICATES FEW OR NO CLOUDS BELOW 12,000 FEET WITH NO
SIGNIFICANT WEATHER AND/OR OBSTRUCTIONS TO VISIBILITY.


NDZ001>003-009>011-017-230900-
NORTHWEST NORTH DAKOTA

CITY           SKY/WX    TMP DP  RH WIND       PRES   REMARKS
WILLISTON      FAIR      28  26  92 CALM      29.77F
MINOT          FAIR      34  28  79 S8        29.79F
MINOT AFB      PTCLDY    31  28  91 S9        29.78F
$$

NDZ018>021-031>035-040>046-230900-
SOUTHWEST NORTH DAKOTA

CITY           SKY/WX    TMP DP  RH WIND       PRES   REMARKS
BISMARCK       FAIR      34  28  79 E9        29.82F
DICKINSON      MOCLDY    33  29  85 SE7       29.74F
GARRISON         N/A     30  27  88 SE5       29.81F
HETTINGER ARPT CLOUDY    33  30  88 NE3       29.77S
$$

NDZ004>008-012>016-024-026-027-054-230900-
NORTHEAST NORTH DAKOTA

CITY           SKY/WX    TMP DP  RH WIND       PRES   REMARKS
GRAND FORKS    CLOUDY    34  21  59 S15G23    29.95F
GRND FRKS AFB  CLOUDY    33  25  72 S17       29.94F
DEVILS LAKE    FAIR      29  25  85 SE9       29.89F
$$

NDZ022-023-025-028>030-036>039-047>053-230900-
SOUTHEAST NORTH DAKOTA

CITY           SKY/WX    TMP DP  RH WIND       PRES   REMARKS
FARGO          PTCLDY    36  24  62 S24G32    29.98F
JAMESTOWN      FAIR      30  25  81 S12       29.88F
$$





USA.gov is the U.S. government's official web portal to all federal, state and local government web resources and services.